Flag for Switzerland Weather past 2 weeks in Zug, Zug, Switzerland

Now
53 °F

Cool.


Feels Like: 53 °F
Forecast: 50 / 69 °F
Wind: 2 mph from West

Location: Zurich Town / Ville.

Current Time: Apr 26, 2015 at 12:25:21 AM

Latest Report: Apr 25, 2015 at 10:00 PM


Visibility: N/A

Pressure: 29.93 "Hg

Humidity: 95%

Dew point: 52 °F

Location of ZugLocation

Historic Weather in Zug — Graph

°F

Zug temperature yesterday

Maximum temperature yesterday: 62 °F (at 2:00 PM)
Minimum temperature yesterday: 50 °F (at 5:00 AM)
Average temperature yesterday: 56 °F

Past Weeks' High & Low Weather Summary

 TemperatureHumidityPressure
High72 °F (Apr 15, 5:00 PM)96% (Apr 17, 10:00 PM)30.47 "Hg (Apr 17, 10:00 PM)
Low36 °F (Apr 19, 7:00 AM)19% (Apr 22, 7:00 PM)29.85 "Hg (Apr 24, 7:00 PM)
Average55 °F54%30.16 "Hg
* Reported Apr 10 10:00 PM — Apr 25 10:00 PM, Zug, Weather by CustomWeather, © 2015

Note: Actual official high and low records may vary slightly from our data, if they occured in-between our weather recording intervals... More about our weather records

Advertising

Zug weather history for previous 24 hours

 ConditionsComfort  
Time TempWeatherWind HumidityBarometerVisibility
10:00 PM
Sat, Apr 25
53 °FCool.2 mph95%29.93 "HgN/A
9:00 PM57 °FCool.2 mph80%29.88 "HgN/A
8:00 PM58 °FPartly sunny.2 mph70%29.86 "HgN/A
7:00 PM60 °FCool.2 mph60%29.86 "HgN/A
6:00 PM60 °FCool.6 mph62%29.87 "HgN/A
5:00 PM58 °FCool.8 mph68%29.88 "HgN/A
4:00 PM60 °FCool.12 mph64%29.88 "HgN/A
3:00 PM61 °FRefreshingly cool.10 mph56%29.87 "HgN/A
2:00 PM62 °FRefreshingly cool.12 mph52%29.87 "HgN/A
1:00 PM61 °FRefreshingly cool.12 mph52%29.88 "HgN/A
12:00 PM61 °FRefreshingly cool.7 mph53%29.89 "HgN/A
11:00 AM60 °FRefreshingly cool.2 mph50%29.90 "HgN/A
10:00 AM57 °FRefreshingly cool.3 mph58%29.91 "HgN/A
9:00 AM55 °FCool.1 mph68%29.91 "HgN/A
8:00 AM54 °FCool.2 mph63%29.91 "HgN/A
7:00 AM52 °FCool.1 mph68%29.92 "HgN/A
6:00 AM50 °FCool.1 mph73%29.89 "HgN/A
5:00 AM50 °FCool.1 mph74%29.89 "HgN/A
4:00 AM50 °FCool.1 mph73%29.90 "HgN/A
3:00 AM51 °FCool.No wind72%29.91 "HgN/A
2:00 AM52 °FCool.1 mph67%29.92 "HgN/A
1:00 AM52 °FCool.No wind62%29.93 "HgN/A
12:00 AM53 °FCool.No wind57%29.92 "HgN/A
Weather by CustomWeather, © 2015

See weather overviewHow to use our weather pages